Location: Palomar Mountain Lodge
(33.3110°N, 116.8495°W)
Time: 07:56:50
(UTC-07:00)

Resurs 01 Rocket - Pass Details

Date: 14 June 2018
Orbit: 634 x 645 km, 98.1° (Epoch: 18 September)

Event Time Altitude Azimuth Distance (km) Brightness Sun altitude
Exits shadow 21:19:41 - 188° (S) 2,286 4.1 -14.8°
Reaches altitude 10° 21:20:24 10° 191° (S) 2,006 3.9 -14.9°
Maximum altitude 21:24:30 40° 261° (W) 937 2.8 -15.5°
Drops below altitude 10° 21:28:39 10° 331° (NNW) 2,023 5.4 -16.1°
Sets 21:30:59 0° 339° (NNW) 2,937 6.2 -16.5°
